Kirksville, MO

1:46 PM CDT on May 29, 2017 (GMT -0500)
Kirksville Regional

Weather History for KIRK - March, 2011

Change the Weather History Date:

Friday, March 4, 2011

  Actual Average Record
Temperature  
Mean Temperature 47 °F 36 °F  
Max Temperature 61 °F 45 °F 75 °F (1961)
Min Temperature 32 °F 26 °F -7 °F (1978)
Degree Days  
Heating Degree Days 18 29  
Month to date heating degree days 100 120  
Since 1 July heating degree days 4804 4653  
Cooling Degree Days 0 0  
Month to date cooling degree days 0 0  
Year to date cooling degree days 0 0  
Moisture  
Dew Point 42 °F    
Average Humidity 78    
Maximum Humidity 100    
Minimum Humidity 55    
Precipitation  
Precipitation 0.61 in 0.08 in 1.85 in (1963)
Month to date precipitation 0.61 0.32  
Year to date precipitation 2.18 3.12  
Sea Level Pressure  
Sea Level Pressure 29.95 in    
Wind  
Wind Speed 9 mph (NNW)    
Max Wind Speed 23 mph    
Max Gust Speed 30 mph    
Visibility 5 miles    
Events Rain , Thunderstorm    
T = Trace of Precipitation, MM = Missing Value Source: NWS Daily Summary

Daily Weather History Graph

Daily Weather History Graph

Search for Another Location

Airport or City:

Trip Planner

Search our weather history database for the weather conditions in past years. The results will help you decide how hot, cold, wet, or windy it might be!

Date:

Astronomy

Mar. 04, 2011 Rise Set
Actual Time 6:39 AM CST 6:05 PM CST
Civil Twilight 6:12 AM CST 6:32 PM CST
Nautical Twilight 5:40 AM CST 7:03 PM CST
Astronomical Twilight 5:09 AM CST 7:35 PM CST
Moon 6:12 AM CST (3/4) 6:15 PM CST (3/4)
Length of Visible Light 12h 19m
Length of Day
11h 25m
Waning Crescent, 0% of the Moon is Illuminated
Mar 4
Waning Crescent
Mar 4
New
Mar 12
First Quarter
Mar 19
Full
Mar 26
Last Quarter

Hourly Weather History & Observations

Time (CST) Temp. Windchill Dew Point Humidity Pressure Visibility Wind Dir Wind Speed Gust Speed Precip Events Conditions
12:55 AM 46.9 °F - 39.9 °F 77% 29.93 in 10.0 mi SE 6.9 mph - N/A   Overcast
1:55 AM 46.9 °F - 41.0 °F 80% 29.91 in 10.0 mi SE 5.8 mph - N/A   Overcast
2:55 AM 46.4 °F 43.5 °F 41.0 °F 81% 29.88 in 10.0 mi SE 5.8 mph - N/A   Overcast
3:55 AM 46.0 °F 43.9 °F 41.0 °F 83% 29.89 in 10.0 mi South 4.6 mph - N/A   Overcast
4:55 AM 48.0 °F - 42.1 °F 80% 29.89 in 10.0 mi South 3.5 mph - N/A   Overcast
5:55 AM 46.0 °F - 42.1 °F 86% 29.91 in 10.0 mi Calm Calm - N/A   Overcast
6:55 AM 43.0 °F 41.3 °F 39.9 °F 89% 29.92 in 10.0 mi WSW 3.5 mph - N/A   Partly Cloudy
7:55 AM 52.0 °F - 44.1 °F 74% 29.93 in 10.0 mi South 4.6 mph - N/A   Clear
8:55 AM 55.0 °F - 45.0 °F 69% 29.93 in 10.0 mi SSW 5.8 mph - N/A   Clear
9:55 AM 57.9 °F - 45.0 °F 62% 29.93 in 10.0 mi SSW 8.1 mph - N/A   Clear
10:55 AM 59.0 °F - 45.0 °F 60% 29.95 in 10.0 mi WSW 9.2 mph - N/A   Partly Cloudy
11:55 AM 57.9 °F - 45.0 °F 62% 29.94 in 9.0 mi SSW 3.5 mph - N/A   Clear
12:55 PM 60.1 °F - 45.0 °F 57% 29.87 in 9.0 mi ENE 5.8 mph - N/A   Partly Cloudy
1:55 PM 57.0 °F - 46.9 °F 69% 29.88 in 9.0 mi NE 8.1 mph - N/A   Mostly Cloudy
2:55 PM 50.0 °F - 48.0 °F 93% 29.93 in 2.5 mi NW 9.2 mph - 0.06 in Rain Rain
2:58 PM 50.0 °F - 46.4 °F 87% 29.92 in 2.5 mi NNW 11.5 mph 16.1 mph 0.01 in Rain , Thunderstorm Thunderstorms and Rain
3:02 PM 48.2 °F - 46.4 °F 93% 29.92 in 3.0 mi North 12.7 mph - 0.03 in Rain , Thunderstorm Thunderstorms and Rain
3:04 PM 48.2 °F - 46.4 °F 93% 29.92 in 2.5 mi North 13.8 mph - 0.04 in Rain , Thunderstorm Heavy Thunderstorms and Rain
3:17 PM 46.4 °F 39.8 °F 44.6 °F 93% 29.93 in 2.0 mi NNW 16.1 mph 20.7 mph 0.11 in Rain , Thunderstorm Thunderstorms and Rain
3:19 PM 46.4 °F 39.5 °F 44.6 °F 93% 29.93 in 2.0 mi NNW 17.3 mph 23.0 mph 0.12 in Rain , Thunderstorm Thunderstorms and Rain
3:23 PM 46.4 °F 39.2 °F 44.6 °F 93% 29.93 in 2.0 mi NNW 18.4 mph 26.5 mph 0.14 in Rain , Thunderstorm Heavy Thunderstorms and Rain
3:31 PM 44.6 °F 36.4 °F 44.6 °F 100% 29.93 in 1.8 mi NNW 20.7 mph 29.9 mph 0.21 in Rain Heavy Rain
3:37 PM 44.6 °F 36.9 °F 42.8 °F 93% 29.93 in 2.0 mi North 18.4 mph 29.9 mph 0.25 in Rain , Thunderstorm Heavy Rain
3:55 PM 44.1 °F 39.0 °F 44.1 °F 100% 29.99 in 2.0 mi NW 9.2 mph - 0.35 in Rain , Thunderstorm Heavy Rain
3:58 PM 44.6 °F 39.2 °F 44.6 °F 100% 29.96 in 1.8 mi North 10.4 mph - 0.02 in Rain , Thunderstorm Heavy Rain
4:04 PM 44.6 °F 38.4 °F 44.6 °F 100% 29.94 in 1.2 mi North 12.7 mph 17.3 mph 0.06 in Rain Heavy Rain
4:18 PM 44.6 °F 37.4 °F 44.6 °F 100% 29.91 in 1.2 mi NNE 16.1 mph - 0.12 in Rain Rain
4:48 PM 44.6 °F 37.8 °F 44.6 °F 100% 29.90 in 2.0 mi North 15.0 mph 24.2 mph 0.16 in Rain Light Rain
4:55 PM 44.1 °F 37.4 °F 44.1 °F 100% 29.93 in 2.0 mi NNE 13.8 mph - 0.16 in Rain Light Rain
5:39 PM 44.6 °F 38.1 °F - N/A% 29.96 in 1.8 mi North 13.8 mph 19.6 mph 0.01 in Rain Light Rain
5:46 PM 42.8 °F 35.4 °F - N/A% 29.95 in 2.0 mi North 15.0 mph 23.0 mph 0.01 in Rain Light Rain
5:55 PM 43.0 °F 35.7 °F 43.0 °F 100% 29.97 in 1.5 mi North 15.0 mph 23.0 mph 0.02 in Rain Light Rain
6:08 PM 42.8 °F 35.8 °F 42.8 °F 100% 29.96 in 3.0 mi NNW 13.8 mph 24.2 mph 0.01 in Rain Light Rain
6:55 PM 41.0 °F 33.9 °F 41.0 °F 100% 30.00 in 7.0 mi North 12.7 mph 25.3 mph 0.01 in   Overcast
7:55 PM 37.9 °F 28.2 °F 37.9 °F 100% 30.00 in 4.0 mi North 18.4 mph 24.2 mph 0.01 in Rain Light Rain
8:55 PM 37.0 °F 28.9 °F 37.0 °F 100% 30.04 in 2.5 mi North 12.7 mph 21.9 mph 0.00 in   Overcast
9:55 PM 35.1 °F 24.5 °F 35.1 °F 100% 30.06 in 2.5 mi North 18.4 mph 26.5 mph N/A   Overcast
10:55 PM 34.0 °F 23.8 °F 34.0 °F 100% 30.10 in 3.0 mi NNW 16.1 mph 27.6 mph N/A   Overcast
11:38 PM 33.8 °F 23.9 °F 33.8 °F 100% 30.08 in 2.5 mi NNW 15.0 mph 24.2 mph N/A   Overcast
11:45 PM 33.8 °F 23.5 °F 33.8 °F 100% 30.08 in 3.0 mi NNW 16.1 mph 24.2 mph N/A   Overcast
11:55 PM 33.1 °F 21.5 °F 33.1 °F 100% 30.09 in 3.0 mi NNW 19.6 mph 25.3 mph N/A   Overcast